{"data":{"norad_id":59857,"epoch":"2026-05-25T04:13:47.987040Z","epoch_age_seconds":59774,"freshness":"FRESH","line1":"1 59857U 24097Y   26145.17624985  .00005389  00000+0  20510-3 0  9991","line2":"2 59857  42.9992 202.4682 0001137 268.7119  91.3602 15.27596529113615","mean_motion":15.27596529,"eccentricity":0.0001137,"inclination_deg":42.9992,"raan_deg":202.4682,"arg_perigee_deg":268.7119,"mean_anomaly_deg":91.3602,"bstar":0.0002051,"rev_number":11361,"period_min":94.265728722404,"perigee_km":482.21949148193,"apogee_km":483.77971394539,"semimajor_km":6861.1366027137,"source":"CELESTRAK","updated_at":"2026-05-25T13:38:19.090015Z"}}